Date,TemperatureHighF,TemperatureAvgF,TemperatureLowF,DewpointHighF,DewpointAvgF,DewpointLowF,HumidityHigh,HumidityAvg,HumidityLow,PressureMaxIn,PressureMinIn,WindSpeedMaxMPH,WindSpeedAvgMPH,GustSpeedMaxMPH,PrecipitationSumIn
2013-3-1,40,37,35,33,33,32,92,86,76,29.67,29.60,6,2,18,0.00
2013-3-2,43,37,35,33,31,30,92,80,60,29.68,29.62,4,1,18,0.00
2013-3-3,39,36,34,34,32,30,94,84,75,29.64,29.57,3,1,18,0.00
2013-3-4,40,35,32,32,28,25,94,77,56,29.69,29.57,5,3,18,0.00
2013-3-5,41,36,33,38,33,28,96,87,79,30.06,29.69,7,3,18,0.09
2013-3-6,40,38,35,36,35,33,96,88,79,30.07,29.92,17,11,21,0.03
2013-3-7,38,36,34,36,35,33,98,97,90,29.91,29.82,17,15,23,0.42
2013-3-8,41,36,33,37,34,32,98,94,70,30.04,29.81,15,12,18,0.61
2013-3-9,39,37,35,33,32,31,88,84,77,30.31,30.04,12,9,20,0.00
2013-3-10,40,37,35,34,32,31,87,83,77,30.41,30.31,7,4,18,0.00
2013-3-11,44,39,36,40,36,32,96,90,80,30.36,30.21,6,3,18,0.00
2013-3-12,47,44,40,46,44,39,98,96,94,30.22,29.79,11,7,18,0.13
2013-3-13,48,46,43,47,46,43,99,98,98,29.80,29.74,12,5,19,0.65
2013-3-14,35,30,25,24,15,11,65,53,44,29.81,29.70,5,3,18,0.00
2013-3-15,38,30,22,29,17,10,75,58,34,29.88,29.68,5,4,12,0.00
2013-3-16,38,34,31,28,22,17,74,61,49,29.88,29.69,4,2,12,0.00
2013-3-17,38,33,25,28,20,12,93,62,41,30.30,29.87,6,2,12,0.00
2013-3-18,33,29,24,27,17,8,91,62,45,30.46,30.27,6,3,12,0.00
2013-3-19,42,36,30,42,35,27,98,96,88,30.27,29.49,13,8,19,0.45
2013-3-20,42,34,28,31,26,20,95,73,48,29.85,29.62,6,3,12,0.00
2013-3-21,40,35,29,33,30,26,96,81,58,29.85,29.57,9,4,12,0.00
2013-3-22,38,34,30,32,28,24,97,82,66,29.75,29.57,3,1,12,0.40
2013-3-23,43,36,29,27,23,20,77,60,40,29.78,29.64,5,3,14,0.04
2013-3-24,43,36,32,30,26,21,86,66,46,29.84,29.76,6,3,9,0.00
2013-3-25,43,37,31,36,31,28,92,79,61,29.77,29.44,12,7,17,0.00
2013-3-26,46,39,35,35,29,23,90,69,41,29.77,29.44,11,4,17,0.01
2013-3-27,50,41,31,38,32,26,90,70,43,29.84,29.75,7,2,9,0.00
2013-3-28,47,41,37,38,34,29,95,80,52,30.02,29.83,9,3,11,0.07
2013-3-29,54,44,36,41,36,32,87,74,54,30.05,30.00,4,1,9,0.00
2013-3-30,52,44,39,40,36,32,92,76,48,30.12,30.03,5,2,8,0.00
2013-3-31,48,42,32,43,39,30,95,87,76,30.15,29.81,12,3,14,0.03